Portada
METAR-TAF:

METAR-TAF

Aeroports :

Coonamble, Austràlia

latitud: 30-59-00S, longitud: 148-22-30E, altitud: 184 m

Observació

L'informe es va fer fa 1 hora i 8 minuts, a les 19:00 UTC
Vent calma
Temperatura 10°C
Humitat 50%
Pressió 1017 hPa

METAR: YCNM 131900Z AUTO 00000KT //// // ////// 10/00 Q1017

Hora: 07:08 (20:08 UTC)


TAF: manca

Observacions i pronòstics meteorològics de més de 4000 aeroports (METAR i TAF).

Les estacions disponibles són els punts grocs i vermells al mapa.

Posi el ratolí al punt desitjat per veure el nom de l'estació.

Feu clic per veure les observacions i els pronòstics meteorològics.

Per canviar el mapa: feu clic els botons verds amb una creu de color negre per apropar; al botó verd amb un guió per allunyar la imatge; o en les fletxes verdes per a mapes adjacents.


METAR-TAF: